TimeEST,TemperatureF,Dew PointF,Humidity,Sea Level PressureIn,VisibilityMPH,Wind Direction,Wind SpeedMPH,Gust SpeedMPH,PrecipitationIn,Events,Conditions,WindDirDegrees,DateUTC
12:54 AM,36.0,26.1,67,29.81,10.0,WNW,9.2,-,N/A,,Clear,290,2013-02-20 05:54:00
1:54 AM,34.0,26.1,73,29.82,10.0,West,6.9,-,N/A,,Clear,280,2013-02-20 06:54:00
2:54 AM,34.0,24.1,67,29.83,10.0,WNW,16.1,21.9,N/A,,Clear,300,2013-02-20 07:54:00
3:54 AM,34.0,19.0,54,29.84,10.0,West,12.7,-,N/A,,Partly Cloudy,280,2013-02-20 08:54:00
4:54 AM,32.0,18.0,56,29.86,10.0,WNW,13.8,-,N/A,,Clear,290,2013-02-20 09:54:00
5:54 AM,30.0,17.1,59,29.88,10.0,WNW,11.5,-,N/A,,Clear,290,2013-02-20 10:54:00
6:54 AM,30.0,17.1,59,29.91,10.0,West,6.9,-,N/A,,Scattered Clouds,270,2013-02-20 11:54:00
7:54 AM,32.0,16.0,52,29.94,10.0,West,9.2,-,N/A,,Clear,280,2013-02-20 12:54:00
8:54 AM,32.0,15.1,50,29.93,10.0,WNW,21.9,31.1,N/A,,Scattered Clouds,290,2013-02-20 13:54:00
9:54 AM,33.1,12.9,43,29.95,10.0,WNW,23.0,29.9,N/A,,Scattered Clouds,290,2013-02-20 14:54:00
10:54 AM,34.0,14.0,44,29.94,10.0,WNW,20.7,33.4,N/A,,Mostly Cloudy,290,2013-02-20 15:54:00
11:54 AM,34.0,12.9,42,29.94,10.0,West,17.3,27.6,N/A,,Overcast,270,2013-02-20 16:54:00
12:54 PM,33.1,15.1,48,29.94,10.0,WNW,19.6,27.6,N/A,,Overcast,290,2013-02-20 17:54:00
1:54 PM,33.1,10.9,40,29.93,10.0,West,23.0,29.9,N/A,,Overcast,280,2013-02-20 18:54:00
2:54 PM,32.0,12.0,44,29.94,10.0,WNW,19.6,32.2,N/A,,Overcast,290,2013-02-20 19:54:00
3:54 PM,32.0,10.9,42,29.95,10.0,WNW,25.3,36.8,N/A,,Overcast,290,2013-02-20 20:54:00
4:54 PM,30.9,10.0,42,29.98,10.0,West,27.6,36.8,N/A,,Overcast,280,2013-02-20 21:54:00
5:54 PM,28.9,8.1,41,30.01,10.0,WNW,21.9,34.5,N/A,,Scattered Clouds,290,2013-02-20 22:54:00
6:54 PM,28.0,9.0,45,30.02,10.0,WNW,16.1,-,N/A,,Clear,300,2013-02-20 23:54:00
7:54 PM,27.0,10.0,49,30.04,10.0,WNW,13.8,-,N/A,,Clear,290,2013-02-21 00:54:00
8:54 PM,27.0,9.0,47,30.05,10.0,WNW,20.7,26.5,N/A,,Clear,290,2013-02-21 01:54:00
9:54 PM,26.1,9.0,49,30.06,10.0,WNW,13.8,-,N/A,,Clear,290,2013-02-21 02:54:00
10:54 PM,26.1,9.0,49,30.07,10.0,West,11.5,-,N/A,,Clear,280,2013-02-21 03:54:00
11:54 PM,25.0,8.1,49,30.08,10.0,West,13.8,-,N/A,,Clear,280,2013-02-21 04:54:00